User: anonymous   Login
Location: Unspecified
(0.0000°N, 0.0000°E)
Time: 23:22:28
(UTC+00:00)
Language:

STARLINK-35069 - Orbit

View from above orbital plane
View from above orbital plane
View from above satellite
View from above satellite

Ground track
Ground track

The orbit is defined by the following mean orbital elements,

1 66268U          26145.58714083 +.00000000 +00000-0 +29403-3 0 00006
2 66268  53.1590 194.5035 0001183  81.6544 278.4591 15.30202086    04
Epoch (UTC): 25 May 2026 14:05:28
Eccentricity: 0.0001183
inclination: 53.1590°
perigee height: 474 km
apogee height: 476 km
right ascension of ascending node: 194.5035°
argument of perigee: 81.6544°
revolutions per day: 15.30202086
mean anomaly at epoch: 278.4591°

The dashed part of the orbit path shows where the satellite is in the earth's shadow,  

DLR